Location: G�ndlingen
(48.0142°N, 7.6396°E)
Time: 16:45:07
(UTC+00:00)

Cosmos 1420 Rocket - Pass Details

Date: 05 July 2020
Orbit: 754 x 782 km, 74.0° (Epoch: 13 August)

Event Time Altitude Azimuth Distance (km) Brightness Sun altitude
Rises 22:50:28 0° 338° (NNW) 3,250 8.8 -18.6°
Reaches altitude 10° 22:52:51 10° 340° (NNW) 2,323 7.7 -18.7°
Maximum altitude 22:58:09 77° 66° (ENE) 799 4.0 -18.9°
Enters shadow 23:00:33 33° 148° (SSE) 1,277 4.6 -18.9°
